Regional Weather Roundup
Issued by NWS Cleveland, OH

Home | Current Version | Previous Version | Text Only | Print | Product List | Glossary Off
Versions: 1 2 3 4 5 6 7 8 9 10 11 12 13 14 15 16 17 18 19 20 21 22 23 24 25 26 27 28 29 30 31 32 33 34 35 36 37 38 39 40 41 42 43 44 45 46 47 48 49 50

000
ASUS41 KCLE 240302
RWRCLE
OHIO REGIONAL WEATHER ROUNDUP
NATIONAL WEATHER SERVICE CLEVELAND, OH
1100 PM EDT SAT SEP 23 2017

NOTE: "FAIR" INDICATES FEW OR NO CLOUDS BELOW 12,000 FEET WITH NO
SIGNIFICANT WEATHER AND/OR OBSTRUCTIONS TO VISIBILITY.

OHZ001>008-015>018-024>027-034-035-043-044-240400-
   NORTHWEST OHIO

CITY           SKY/WX    TMP DP  RH WIND       PRES   REMARKS
DEFIANCE       CLEAR     69  61  75 CALM      30.11R
FINDLAY        CLEAR     74  55  51 E7        30.11R
TOLEDO EXPRESS CLEAR     68  65  90 CALM      30.11S
TOLEDO EXEC    CLEAR     70  61  73 E6        30.12R
LIMA           CLEAR     69  60  73 E7        30.11S
$$

OHZ009>014-019>023-028>033-038-089-240400-
   NORTHEAST OHIO

CITY           SKY/WX    TMP DP  RH WIND       PRES   REMARKS
CLE-HOPKINS    CLEAR     71  57  61 CALM      30.15R
CLE-LAKEFRONT  CLEAR     74  64  71 CALM      30.11S
CUY CO. ARPT   CLEAR     70  61  73 CALM      30.14S
LORAIN-ELYRIA  CLEAR     64  54  69 CALM      30.14R
ASHTABULA      CLEAR     65  63  93 CALM      30.16R
AKRON-CANTON   PTCLDY    69  58  67 NE5       30.15R
WOOSTER        CLEAR     63  60  90 CALM      30.15R
MANSFIELD      CLEAR     73  59  61 CALM      30.15R
YOUNGSTOWN     PTCLDY    67  62  84 E3        30.15R
$$

OHZ042-051>053-060>062-070>072-077>081-240400-
  SOUTHWEST OHIO

CITY           SKY/WX    TMP DP  RH WIND       PRES   REMARKS
CINC-COVINGTON CLEAR     77  66  68 CALM      30.08S
CINC-LUNKEN    CLEAR     68  67  96 CALM      30.08S
HAMILTON       CLEAR     66  65  96 CALM      30.09R
DAYTON         CLEAR     74  58  57 E5        30.11S
WRIGHT-PAT AFB NOT AVBL
DAYTON GENERAL CLEAR     72  59  63 E5        30.09S
WILMINGTON     CLEAR     71  60  68 E5        30.10S
$$

OHZ036-037-039>041-045>050-054>059-063>069-073>076-082>088-240400-
  CENTRAL AND SOUTHEAST OHIO

CITY           SKY/WX    TMP DP  RH WIND       PRES   REMARKS
COLUMBUS       CLEAR     74  61  63 E5        30.09S
OSU AIRPORT    CLEAR     70  61  73 NE5       30.10S
BOLTON FIELD   CLEAR     67  61  81 CALM      30.11S
RICKENBACK AFB NOT AVBL
NEWARK         CLEAR     64  62  93 CALM      30.11R
MARION         CLEAR     68  59  73 CALM      30.13R
LANCASTER      CLEAR     61  59  93 CALM      30.11S
ZANESVILLE     CLEAR     66  60  81 CALM      30.12R
NEW PHILLY     NOT AVBL
$$



USA.gov is the U.S. government's official web portal to all federal, state and local government web resources and services.